Regional Weather Roundup
Issued by NWS

Home | Current Version | Previous Version | Text Only | Print | Product List | Glossary Off
Versions: 1 2 3 4 5 6 7 8 9 10 11 12 13 14 15 16 17 18 19 20 21 22 23 24 25 26 27

000
ASUS43 KDMX 201007
RWRIA

WEATHER ROUNDUP FOR IOWA
NATIONAL WEATHER SERVICE DES MOINES IA
500 AM CDT SUN APR 20 2014

NOTE: "FAIR" INDICATES FEW OR NO CLOUDS BELOW 12,000 FEET WITH NO
SIGNIFICANT WEATHER AND/OR OBSTRUCTIONS TO VISIBILITY.

* - THESE STATIONS ARE NOT NWS STATIONS...THUS NOT UNDER NWS
QUALITY CONTROL.  THEY ALSO DO NOT REPORT WEATHER SUCH
AS PRECIPITATION OR FOG.

IAZ001>003-012>014-020>022-031>034-043>046-201100-
   NORTHWEST IOWA

CITY           SKY/WX    TMP DP  RH WIND       PRES   REMARKS
CARROLL *      CLOUDY    63  45  51 S16G22    29.99F
CHEROKEE *     CLOUDY    59  46  63 S5        29.98F
DENISON *      CLEAR     61  45  55 S14G20    29.97F
LE MARS *      CLEAR     52  48  87 N5        29.97F
ORANGE CITY *  CLEAR     54  43  66 E6        29.98S
SHELDON *      MOCLDY    52  39  62 NE10      29.98S
SIOUX CITY     MOCLDY    58  46  64 SE7       29.96F
SPENCER        MOCLDY    51  44  77 E7        29.99F
STORM LAKE *   MOCLDY    59  45  58 S7        30.00F
$$

IAZ055>058-069>071-079>083-090>094-201100-
   SOUTHWEST IOWA

CITY           SKY/WX    TMP DP  RH WIND       PRES   REMARKS
ATLANTIC *     CLEAR     61  45  55 S12       30.01F
AUDUBON *      PTCLDY    63  43  48 S8        30.02F
CLARINDA *     CLEAR     59  46  63 S7        30.05F
COUNCIL BLFS * PTCLDY    64  48  55 S17       29.98F
CRESTON *      CLEAR     59  45  58 S12       30.05F
HARLAN  *      CLEAR     61  46  59 S12       30.03S
LAMONI         MOCLDY    56  43  61 S10       30.07F
RED OAK *      CLOUDY    61  46  59 S12G17    30.02F
SHENANDOAH *   CLEAR     59  46  63 S12       30.03F
$$

IAZ047>049-059>061-072>074-084-201100-
   CENTRAL IOWA

CITY           SKY/WX    TMP DP  RH WIND       PRES   REMARKS
AMES           HVY RAIN  54  48  80 SE8       30.05S
ANKENY *       CLOUDY    59  46  63 SE7       30.05F
CHARITON *     CLOUDY    55  43  62 S12       30.07F
DES MOINES     CLOUDY    60  44  55 S9        30.05F
GRINNELL*      MOCLDY    55  41  58 S8        30.09R
KNOXVILLE *    MOCLDY    57  41  54 S7        30.07S
MARSHALLTOWN   MOCLDY    58  41  53 S12       30.06S
NEWTON *       PTCLDY    54  41  62 S9        30.07F
PELLA *        CLOUDY    59  43  55 S8        30.09S
PERRY *        CLOUDY    63  43  48 S7        30.02F
$$

IAZ004>006-015-016-023>025-035-036-201100-
   NORTH CENTRAL IOWA

CITY           SKY/WX    TMP DP  RH WIND       PRES   REMARKS
ALGONA *       CLOUDY    61  46  59 CALM      30.01S
CLARION *      CLOUDY    59  48  67 S14       30.02S
ESTHERVILLE    MOCLDY    50  44  80 NE3       30.00S
FORT DODGE *   CLOUDY    63  46  55 S15       30.02F
MASON CITY     CLOUDY    57  47  69 S5        30.04R
FOREST CITY *  CLOUDY    55  46  71 CALM      30.02S
IOWA FALLS *     N/A     57  45  62 S12       30.05S
$$

IAZ007>011-017>019-026>030-037>042-050>054-066-201100-
   NORTHEAST IOWA

CITY           SKY/WX    TMP DP  RH WIND       PRES   REMARKS
CEDAR RAPIDS   MOCLDY    55  41  59 S9        30.10S
CHARLES CITY * CLOUDY    57  43  58 S14       30.05F
CLINTON *      MOCLDY    48  36  61 SE9       30.18S
DECORAH *      CLOUDY    61  39  44 S9G20     30.06S
DUBUQUE        CLOUDY    51  39  63 S8        30.13S
MONTICELLO *   CLOUDY    57  41  54 S8        30.12S
OELWEIN *      MOCLDY   N/A N/A N/A S15       30.09S
WATERLOO       CLOUDY    58  40  51 S12       30.07R
$$

IAZ064-065-067-068-078-201100-
   EAST CENTRAL IOWA

CITY           SKY/WX    TMP DP  RH WIND       PRES   REMARKS
DAVENPORT      MOCLDY    58  38  47 S13       30.16R
IOWA CITY      MOCLDY    50  41  71 SE3       30.13F
MT. PLEASANT * MOCLDY    54  41  62 S8        30.13F
MUSCATINE *    CLEAR     46  41  81 CALM      30.14S
QUAD CITIES    MOCLDY    52  37  56 S8        30.15R
$$

IAZ062-063-075>077-085>089-095>099-201100-
   SOUTHEAST IOWA

CITY           SKY/WX    TMP DP  RH WIND       PRES   REMARKS
BURLINGTON     PTCLDY    58  41  53 S14       30.14S
FAIRFIELD *    CLOUDY    57  41  54 S10       30.12S
FORT MADISON * CLEAR     55  43  62 S12       30.15S
KEOKUK *       CLEAR     61  41  48 S9G15     30.14S
OSKALOOSA *    CLOUDY    55  43  62 S10       30.10S
CENTERVILLE *  CLEAR     54  41  62 SE8       30.11F
OTTUMWA        CLOUDY    56  40  55 S14       30.09F
WASHINGTON *   CLEAR     55  43  62 S9        30.12F
$$

ABBREVIATIONS USED IN REMARKS
   TC - TEMPERATURES IN CELSIUS
  WCI - WIND CHILL INDEX
   HX - HEAT INDEX
  VSB - VISIBILITY
$$




USA.gov is the U.S. government's official web portal to all federal, state and local government web resources and services.